Wind_Speed
21 22 23 23 24 24 24 25 24 24 22 22 23 23 23 23 24 24 23 23 24 24 25 24 24 24 25 25 26 26 26 25 25 24 25 25 25 25
23 23 24 24 25 25 25 26 26 25 24 24 23 24 24 24 25 25 25 25 25 25 25 25 25 25 26 26 26 25 26 26 26 26 26 26 26 24
24 24 25 25 26 26 26 27 27 26 26 25 25 25 25 25 25 25 26 26 25 25 26 25 25 25 25 25 25 25 26 26 26 26 26 26 26 25
25 25 26 26 26 27 27 27 27 27 27 27 26 26 26 26 26 27 26 25 26 25 25 25 25 25 25 25 25 25 25 26 26 26 26 25 25 25
26 27 27 27 27 27 27 27 27 28 28 28 28 27 27 28 28 28 27 26 26 26 26 26 26 26 25 25 25 25 25 25 24 24 25 24 25 25
27 28 28 28 28 28 28 28 28 28 28 29 29 28 28 29 28 28 27 26 26 26 26 26 26 26 25 26 25 25 24 22 22 23 24 24 25 26
27 28 28 28 29 29 28 28 28 29 29 30 30 30 29 29 28 28 27 27 27 27 27 27 26 26 25 25 25 24 24 23 23 23 23 24 25 26
29 29 28 28 29 29 29 29 29 30 30 31 31 30 29 28 29 28 28 28 28 28 28 27 27 26 26 25 25 25 25 24 24 24 24 24 24 25
30 30 30 30 30 29 29 29 30 30 31 31 30 29 28 29 29 29 29 29 28 28 28 27 27 26 26 26 26 25 25 24 24 25 25 25 25 25
30 31 32 31 31 31 30 30 30 31 31 31 30 29 28 29 29 28 29 29 29 28 29 28 28 27 27 26 26 26 26 26 25 25 25 26 26 26
32 32 32 32 32 32 32 32 31 32 32 32 30 29 29 29 29 28 28 28 28 29 29 28 28 27 27 27 27 26 26 26 26 25 25 25 25 26
33 33 33 34 34 34 33 32 32 33 32 32 31 30 29 29 29 29 29 29 28 28 28 29 28 27 26 26 26 26 26 26 26 26 25 25 26 26
34 33 34 35 35 34 34 34 34 34 33 32 31 30 30 29 29 30 29 29 29 29 28 29 28 28 27 25 25 25 25 25 26 26 26 26 26 26
34 34 34 34 35 35 35 35 35 35 34 33 32 31 31 31 30 30 30 30 29 29 28 28 27 27 27 25 24 23 24 24 24 25 25 25 26 26
35 35 35 35 35 35 35 35 35 35 34 33 32 32 32 32 32 31 31 30 30 30 29 28 27 27 26 25 24 23 23 23 23 23 24 24 24 25
34 35 35 35 35 34 35 35 35 34 34 33 33 33 33 33 32 32 31 30 30 29 30 29 28 27 26 25 24 23 23 23 23 23 24 24 24 24
35 35 35 35 34 34 34 34 34 34 34 33 33 33 32 32 32 31 31 30 30 29 29 28 28 27 26 25 25 24 24 23 23 24 23 23 24 24
35 35 34 34 34 34 34 34 34 33 33 32 33 33 33 32 31 31 31 29 29 29 28 27 27 26 26 25 25 24 24 23 23 24 24 24 24 24
36 35 34 34 34 34 34 34 33 32 32 32 32 33 32 31 30 30 30 29 28 28 28 27 26 26 26 25 25 25 25 24 24 24 24 24 24 24
35 34 35 34 34 34 34 33 32 31 31 32 32 31 30 29 29 29 28 28 28 27 27 27 26 26 26 26 25 25 25 25 24 24 24 25 24 24
34 34 34 33 33 34 34 33 32 32 31 31 30 29 29 28 28 28 27 27 27 27 27 26 26 26 25 25 25 25 25 25 25 24 23 23 23 23
34 33 33 32 33 33 33 32 31 30 30 30 30 29 28 28 28 29 28 27 27 27 27 26 26 25 25 25 24 24 24 24 24 23 23 23 23 23
33 33 32 31 32 32 31 30 29 29 29 29 29 29 28 28 28 28 28 27 27 27 26 25 25 25 25 24 24 24 24 24 24 24 23 23 23 23
Wind_Direction
300 302 304 304 304 304 305 307 307 307 305 305 302 302 302 298 296 293 293 293 292 291 291 291 291 289 288 287 285 281 277 276 274 272 272 273 274 270
298 299 302 303 303 302 302 304 304 304 303 304 303 305 304 301 299 296 293 293 292 291 291 291 289 288 288 287 284 282 278 275 273 271 272 271 270 269
299 300 301 301 301 301 301 301 300 300 301 302 302 303 303 301 299 297 296 294 292 291 290 289 289 288 287 288 285 281 278 276 275 272 272 270 267 266
300 300 300 300 299 300 300 299 299 300 300 300 300 301 301 300 299 297 297 293 292 290 290 289 290 290 288 287 286 283 281 278 274 272 270 268 266 264
303 302 300 300 300 300 300 299 298 299 301 301 299 298 298 298 297 297 298 295 293 292 290 289 290 290 290 289 288 286 283 280 274 271 269 266 264 264
305 304 302 298 299 300 299 299 299 299 301 300 300 298 297 298 297 295 294 294 294 293 291 289 288 288 289 289 288 286 284 281 275 271 268 266 265 265
303 304 304 302 300 301 300 300 300 300 301 300 300 299 297 297 296 296 295 293 292 292 291 290 289 288 288 289 287 285 283 279 277 274 271 268 266 265
301 302 303 303 302 301 301 301 300 300 301 301 300 299 296 295 296 297 297 296 294 292 290 289 288 289 288 289 288 286 283 279 278 277 274 272 269 268
299 300 300 301 301 300 300 301 301 302 302 302 301 300 298 296 296 296 296 297 297 295 292 289 287 287 287 286 286 284 281 279 277 275 274 273 271 270
297 298 299 299 300 299 300 301 301 302 302 303 303 302 300 299 299 298 297 297 296 295 294 291 289 287 285 286 285 282 280 279 277 276 274 272 271 270
297 297 297 297 298 298 298 299 300 300 301 302 301 301 301 300 299 299 300 300 297 296 293 292 291 288 286 285 284 281 279 278 277 275 273 271 270 269
296 296 296 295 295 296 296 297 297 298 299 299 298 298 299 299 298 297 298 298 298 297 295 293 292 289 287 286 284 281 279 278 276 275 273 271 271 271
295 296 295 295 295 295 295 295 295 297 298 298 297 296 297 298 297 296 296 297 297 296 295 294 292 289 286 285 283 281 279 278 276 273 271 270 270 269
294 295 295 295 296 296 296 295 294 294 295 296 296 296 296 296 296 296 296 296 296 295 294 294 293 290 285 282 280 279 279 278 276 273 271 270 269 267
293 294 295 295 295 295 295 295 295 294 293 293 294 294 296 296 295 295 295 295 295 294 293 292 292 291 287 283 281 280 280 280 277 274 272 269 266 267
294 295 295 295 296 295 295 295 295 295 293 292 292 293 294 294 293 293 293 294 293 292 291 290 290 289 287 284 282 281 280 278 275 273 273 270 266 264
293 295 295 295 295 295 295 295 295 295 293 292 292 292 291 291 290 290 291 293 293 292 290 288 287 286 285 283 283 279 277 276 274 273 273 271 268 266
293 294 294 295 296 296 297 296 295 295 294 293 292 291 290 290 290 290 290 292 292 292 291 289 286 285 283 282 282 279 276 275 273 273 272 271 268 266
295 295 295 295 296 296 296 297 296 296 294 293 293 291 289 289 290 290 289 290 290 290 290 288 286 284 282 279 278 277 275 273 271 271 271 270 267 266
297 296 296 295 296 295 295 295 295 294 294 295 294 292 290 290 290 290 290 289 289 289 288 286 283 282 282 279 277 276 274 271 269 269 269 269 266 264
298 297 296 296 296 296 295 294 294 294 294 295 295 293 291 290 288 289 291 291 290 288 287 285 283 281 279 278 277 276 274 272 269 269 269 267 264 262
298 298 296 296 297 297 297 296 295 294 293 294 294 293 291 290 289 289 290 292 292 290 289 286 283 281 279 277 277 275 272 271 269 270 269 266 263 260
299 299 299 298 299 298 296 295 295 295 294 294 294 292 292 291 291 291 291 290 290 290 288 286 284 282 280 278 276 274 270 269 268 267 267 267 264 261
Height
5855 5853 5851 5849 5846 5844 5842 5839 5837 5835 5833 5831 5829 5826 5825 5823 5821 5819 5817 5816 5815 5813 5812 5811 5809 5808 5807 5806 5805 5804 5803 5803 5803 5803 5803 5803 5803 5803
5850 5848 5846 5843 5841 5839 5837 5834 5831 5829 5827 5825 5823 5820 5818 5816 5813 5811 5810 5809 5807 5806 5805 5804 5802 5801 5800 5798 5797 5796 5796 5795 5795 5795 5795 5796 5796 5796
5844 5842 5840 5838 5836 5833 5830 5828 5825 5823 5821 5819 5816 5814 5812 5809 5806 5804 5803 5802 5801 5799 5798 5796 5795 5794 5792 5791 5790 5789 5788 5788 5788 5788 5788 5788 5788 5789
5839 5837 5834 5832 5829 5827 5824 5822 5819 5817 5815 5813 5810 5808 5805 5803 5800 5798 5795 5794 5793 5792 5790 5789 5788 5786 5785 5784 5782 5781 5781 5780 5780 5780 5780 5780 5780 5781
5833 5831 5828 5825 5823 5820 5818 5815 5813 5810 5808 5806 5804 5801 5799 5796 5794 5791 5789 5787 5786 5784 5783 5782 5781 5779 5778 5777 5775 5774 5773 5773 5772 5772 5772 5772 5773 5773
5827 5824 5821 5819 5816 5814 5811 5808 5806 5803 5801 5798 5796 5794 5791 5789 5787 5784 5782 5781 5779 5777 5776 5775 5773 5772 5771 5769 5768 5767 5766 5765 5764 5764 5765 5765 5765 5765
5820 5817 5814 5811 5809 5806 5804 5801 5799 5796 5794 5791 5789 5786 5784 5781 5779 5776 5775 5773 5772 5770 5769 5768 5766 5765 5763 5762 5761 5759 5758 5758 5757 5757 5757 5757 5757 5757
5813 5810 5807 5805 5802 5799 5796 5794 5791 5788 5786 5783 5780 5778 5775 5773 5770 5768 5767 5766 5764 5763 5761 5760 5759 5757 5756 5755 5753 5752 5751 5750 5750 5749 5749 5749 5749 5749
5805 5803 5800 5797 5795 5792 5789 5787 5783 5781 5778 5776 5773 5770 5767 5765 5763 5761 5759 5757 5756 5754 5753 5752 5751 5749 5748 5747 5745 5744 5743 5742 5742 5741 5741 5741 5741 5741
5798 5795 5793 5790 5787 5784 5782 5779 5776 5773 5771 5768 5765 5762 5760 5757 5755 5753 5750 5749 5747 5746 5744 5744 5742 5741 5740 5738 5737 5736 5735 5734 5734 5733 5733 5733 5733 5733
5789 5787 5784 5782 5779 5776 5774 5771 5768 5766 5762 5760 5757 5755 5752 5749 5747 5745 5743 5741 5739 5738 5736 5734 5733 5732 5731 5730 5729 5728 5727 5726 5725 5725 5725 5724 5725 5725
5781 5778 5776 5773 5770 5768 5765 5763 5760 5757 5755 5752 5749 5747 5744 5741 5739 5737 5735 5733 5731 5729 5727 5725 5724 5723 5723 5721 5720 5719 5718 5718 5717 5717 5717 5716 5716 5716
5772 5770 5767 5764 5761 5758 5756 5753 5751 5748 5746 5744 5741 5739 5736 5734 5731 5728 5726 5724 5722 5720 5719 5716 5715 5713 5713 5713 5712 5711 5710 5710 5709 5709 5708 5708 5708 5708
5763 5760 5758 5755 5752 5749 5746 5744 5741 5739 5737 5735 5732 5730 5728 5725 5722 5720 5718 5715 5713 5712 5710 5707 5706 5704 5704 5703 5703 5703 5702 5701 5701 5700 5700 5700 5700 5700
5753 5750 5748 5746 5743 5740 5737 5734 5732 5729 5728 5725 5723 5721 5718 5716 5713 5711 5709 5707 5705 5703 5701 5699 5697 5696 5695 5695 5694 5694 5694 5693 5692 5691 5691 5691 5691 5691
5743 5741 5738 5736 5733 5730 5728 5725 5722 5720 5717 5715 5713 5711 5708 5706 5704 5702 5700 5698 5696 5694 5692 5690 5689 5688 5687 5686 5685 5685 5685 5685 5684 5684 5683 5683 5683 5684
5733 5731 5729 5726 5724 5721 5718 5715 5713 5710 5707 5705 5703 5701 5699 5696 5694 5693 5691 5689 5687 5686 5684 5682 5680 5679 5678 5677 5677 5676 5676 5676 5676 5675 5675 5675 5676 5676
5723 5722 5719 5716 5714 5711 5708 5706 5703 5700 5698 5695 5693 5691 5689 5687 5685 5683 5681 5679 5678 5676 5675 5673 5672 5671 5670 5669 5668 5668 5667 5668 5668 5667 5667 5667 5668 5668
5713 5711 5709 5706 5703 5701 5699 5696 5694 5691 5688 5686 5683 5681 5678 5677 5675 5673 5672 5670 5668 5667 5666 5664 5663 5662 5662 5662 5661 5659 5659 5659 5659 5659 5659 5659 5660 5660
5704 5701 5699 5696 5694 5691 5689 5686 5684 5682 5679 5676 5674 5671 5669 5667 5665 5663 5662 5660 5659 5658 5656 5655 5654 5653 5652 5652 5652 5651 5650 5650 5650 5651 5651 5651 5651 5652
5694 5691 5689 5686 5684 5681 5679 5677 5674 5672 5670 5667 5664 5661 5660 5658 5656 5654 5653 5651 5650 5648 5647 5646 5645 5644 5643 5643 5643 5642 5642 5641 5641 5642 5642 5642 5643 5644
5685 5682 5679 5677 5674 5671 5669 5667 5665 5663 5661 5658 5655 5653 5651 5649 5647 5645 5644 5642 5641 5639 5638 5637 5636 5635 5634 5634 5634 5634 5633 5633 5633 5633 5633 5634 5634 5636
5675 5673 5670 5667 5664 5662 5660 5658 5655 5653 5651 5649 5647 5644 5642 5640 5638 5636 5635 5633 5632 5630 5629 5628 5627 5626 5626 5625 5625 5625 5625 5625 5625 5626 5626 5626 5627 5628